Wind_Speed
12 13 11 9 10 10 9 7 3 6 11 15 18 19 20 21 20 22 23 22 22 21 20 20 19 19 18 17 17 17 16 15 14 12 11 10 10 10 10 11 11 11 11 12 13 12 11 12 12 13 13 13 12 12 11 12 12 11 10 10 9 8 8
12 12 11 10 11 10 9 7 3 5 10 15 18 20 22 21 21 22 23 23 22 21 21 21 21 20 20 19 18 18 18 18 16 15 14 13 13 13 13 12 13 13 12 12 12 13 12 12 13 13 13 13 13 12 12 12 11 11 11 10 9 8 9
14 11 11 11 11 10 9 7 5 5 10 15 18 20 22 22 23 24 24 23 23 23 22 22 22 22 21 20 20 19 20 20 19 18 17 15 15 15 16 15 15 14 14 13 13 13 13 13 13 14 14 14 14 13 13 12 11 11 11 9 8 8 8
14 11 11 12 11 10 10 9 8 7 10 14 18 20 23 24 24 25 24 22 22 22 23 24 24 23 23 23 22 21 21 22 22 20 19 17 16 16 17 17 17 15 14 14 14 14 14 14 14 14 14 14 14 14 14 13 12 11 10 9 9 9 8
13 12 13 13 12 12 11 11 10 9 10 11 14 16 19 22 22 22 21 20 20 21 22 24 24 24 24 25 24 23 23 23 23 22 20 19 17 17 17 18 18 17 15 15 15 16 17 16 15 14 14 14 13 12 13 13 12 11 10 10 10 10 9
12 12 13 14 14 13 12 12 11 9 9 10 12 13 14 16 18 19 19 18 18 20 21 22 23 24 26 26 27 26 25 24 24 23 22 20 18 17 17 18 19 18 17 16 15 16 17 17 16 15 14 14 13 12 13 14 13 12 11 12 12 11 10
11 11 11 13 15 13 12 11 11 11 10 10 12 14 12 11 14 16 18 19 19 20 21 21 23 25 26 27 28 28 26 26 25 24 23 21 19 18 18 18 19 19 18 17 16 16 16 16 16 17 16 15 14 14 14 14 14 14 13 13 13 12 10
11 11 10 12 14 13 10 9 10 11 12 12 12 14 13 12 15 18 18 19 19 19 20 22 23 24 26 27 28 28 28 28 27 26 24 23 21 20 19 19 20 20 18 18 18 17 16 15 16 17 18 18 17 16 16 15 15 15 15 13 13 12 11
10 11 11 12 14 14 12 10 9 9 10 12 11 11 13 14 17 21 20 19 19 19 20 22 22 23 24 25 26 28 29 29 29 27 26 25 24 22 21 20 20 19 19 19 19 18 18 17 16 17 19 19 19 19 17 16 15 15 15 14 13 12 11
9 9 10 12 13 14 14 14 12 9 9 11 10 9 10 11 14 19 21 20 19 20 20 20 20 20 22 23 25 28 30 30 31 30 28 28 26 24 22 21 20 19 19 20 20 20 20 19 18 18 18 19 19 19 19 17 15 14 14 15 15 14 13
9 9 11 14 15 15 15 16 16 12 8 7 9 9 8 8 10 14 19 20 19 18 18 18 18 19 21 24 26 28 31 32 33 32 31 29 26 24 22 21 21 20 20 20 20 20 19 19 18 18 17 17 18 19 20 18 16 15 15 16 16 15 14
11 11 13 16 18 17 17 18 18 15 9 7 8 9 9 9 9 12 16 18 17 16 16 17 18 19 21 23 24 23 25 30 33 33 31 29 26 24 23 23 22 20 21 21 21 20 19 18 17 17 17 17 17 19 20 19 17 17 17 17 16 16 15
13 14 14 17 19 18 18 18 18 15 11 9 8 9 9 10 11 12 15 16 15 15 15 16 17 18 20 22 23 21 20 24 29 31 30 27 25 24 24 24 22 21 21 23 22 20 19 17 17 18 17 16 16 18 20 20 19 18 17 17 17 16 15
13 14 16 18 19 19 17 17 19 17 12 11 10 8 7 9 11 13 14 15 15 16 16 16 16 17 19 21 22 22 19 19 22 25 26 25 24 24 23 23 21 20 21 22 21 18 17 17 19 19 18 17 17 18 20 22 21 19 17 16 16 16 14
13 15 17 18 20 22 19 15 16 16 11 12 11 8 7 8 11 13 14 14 15 16 16 16 16 17 18 19 20 20 19 18 19 21 23 23 23 22 20 18 18 19 20 20 18 16 16 17 18 18 17 17 17 18 20 22 21 19 18 17 16 15 14
16 17 17 16 18 22 23 18 14 13 12 13 12 9 9 10 12 12 12 13 14 15 16 16 16 17 17 17 18 19 20 20 21 21 22 21 19 17 15 15 16 18 18 17 15 14 15 15 15 16 16 17 17 17 19 21 21 20 19 18 16 15 13
17 16 15 16 17 21 25 25 18 14 16 17 15 12 12 13 13 13 12 12 12 12 14 15 15 16 16 16 17 18 19 20 21 21 20 19 16 12 11 13 16 17 15 14 13 13 13 13 13 14 15 15 15 15 17 19 20 20 19 17 15 13 12
17 16 16 19 19 20 25 27 23 19 19 21 18 15 16 16 15 14 13 12 11 10 10 12 12 13 15 15 16 16 17 18 19 18 18 17 16 14 13 13 13 12 11 11 12 12 13 12 12 13 13 13 13 14 15 15 16 17 16 14 13 12 12
18 17 18 21 23 23 25 27 28 26 24 25 22 18 17 18 16 15 13 12 12 10 9 9 10 12 13 14 15 15 15 15 15 16 16 17 17 16 14 12 10 8 9 10 11 12 12 12 12 12 12 12 12 13 14 14 14 15 13 12 12 12 13
21 20 20 24 29 29 28 28 30 32 29 26 23 19 18 18 18 15 13 13 12 11 10 10 10 11 12 13 14 14 14 15 14 14 15 16 15 13 11 10 9 9 9 10 10 10 11 11 11 12 12 13 13 13 13 14 15 14 13 12 12 12 13
23 23 23 27 32 32 30 30 31 33 33 29 26 20 19 20 19 17 15 14 13 11 10 11 10 11 12 12 13 14 13 13 13 12 12 12 12 11 10 9 8 8 9 9 9 9 10 10 10 10 12 13 13 13 12 13 13 13 12 12 12 12 12
24 24 26 30 33 32 31 31 29 27 27 29 28 22 20 22 21 19 18 15 14 13 11 11 11 11 11 11 11 11 10 10 10 9 8 8 9 9 8 8 8 8 7 8 8 8 9 9 10 10 11 11 11 11 11 11 11 11 12 12 11 11 11
25 25 28 31 33 32 32 33 31 25 21 25 30 24 21 22 21 21 19 16 15 14 12 11 10 9 8 8 7 7 6 6 6 7 6 6 7 7 8 8 9 9 9 9 9 9 9 9 10 10 10 10 11 10 10 10 11 12 12 12 12 12 12
27 27 29 31 31 31 33 34 31 25 20 24 30 26 23 23 22 21 20 17 15 13 11 10 9 7 6 5 4 3 3 3 3 4 5 5 6 6 7 7 9 10 10 10 11 10 10 10 10 9 10 10 10 10 10 10 10 11 11 12 12 12 13
29 30 31 30 28 28 31 33 31 25 20 21 26 27 26 25 23 22 22 18 15 13 11 10 8 7 6 5 4 3 2 3 3 4 5 6 6 6 6 6 7 8 9 10 11 11 10 10 10 9 9 9 9 9 10 10 10 11 11 12 12 12 13
29 31 32 30 27 25 27 30 32 28 23 20 23 26 27 27 25 24 24 21 17 14 12 10 9 8 7 6 5 4 4 4 5 5 5 6 6 6 6 6 7 7 7 8 9 9 10 10 10 10 10 9 9 9 9 10 11 12 12 12 13 13 13
30 31 32 30 28 26 26 28 31 31 28 26 26 26 27 27 26 25 24 22 18 14 12 11 10 9 8 7 6 5 5 5 5 5 6 6 6 6 7 7 7 7 7 8 9 9 10 10 11 11 11 11 10 10 10 11 12 13 13 13 13 14 14
32 31 32 31 30 29 28 29 30 31 30 30 29 29 28 26 26 26 25 22 19 16 14 12 12 11 10 9 8 7 6 5 4 5 5 6 7 7 7 7 7 7 7 8 8 9 9 10 11 11 12 11 11 11 12 13 13 13 14 15 15 16 16
32 31 30 30 30 30 30 29 29 28 26 26 26 26 29 28 27 26 25 23 21 19 17 14 13 13 12 11 10 9 7 6 5 5 6 7 7 8 8 8 8 8 9 9 9 10 10 10 11 12 12 12 12 13 14 15 15 15 16 16 17 18 18
32 30 29 29 29 30 30 29 28 27 27 26 22 20 25 28 26 25 25 23 20 19 18 15 14 13 13 13 12 10 9 8 8 8 7 8 8 8 9 9 10 10 10 11 11 11 11 12 12 13 14 14 14 15 16 17 17 17 17 17 17 18 18
32 29 27 28 29 30 30 29 30 31 30 25 19 16 21 25 24 23 25 24 20 19 17 15 13 13 14 14 15 14 13 11 10 10 9 9 8 8 9 9 10 10 10 10 10 10 11 11 12 13 14 14 15 15 15 16 17 16 16 16 16 17 17
33 31 27 27 30 31 31 32 33 35 34 28 20 16 19 23 22 22 26 26 22 21 19 15 13 14 13 14 15 15 15 14 12 11 10 9 8 8 8 8 9 9 10 10 10 10 10 11 11 12 13 14 14 14 14 14 14 15 15 15 15 16 16
33 32 28 28 31 31 32 33 35 37 38 35 28 21 20 23 22 22 26 26 23 23 22 18 16 15 13 13 13 12 12 12 12 11 11 10 9 8 8 8 8 9 10 11 12 12 12 13 13 13 13 14 14 14 14 14 15 15 15 15 16 16 17
33 32 30 29 31 31 31 31 34 37 38 36 32 26 23 23 22 23 25 24 23 24 24 21 19 17 15 13 12 10 10 10 10 10 10 10 9 8 8 8 9 10 11 11 12 13 13 14 15 15 15 15 15 15 16 16 16 17 17 17 18 18 19
34 33 33 31 31 33 33 30 30 33 35 34 34 33 29 24 21 21 23 24 23 23 22 21 21 20 17 16 13 11 10 10 9 10 10 10 9 9 9 10 11 12 13 13 13 13 13 14 15 16 16 17 17 17 17 17 17 17 18 18 18 19 19
34 35 36 34 32 33 35 32 29 29 31 33 36 37 34 29 23 20 21 23 23 23 21 19 19 19 18 18 18 16 13 12 11 11 12 12 11 11 11 11 12 13 14 15 16 16 15 15 15 16 16 17 17 17 17 17 17 17 16 16 16 16 17
35 36 37 37 35 35 35 34 31 30 32 35 37 36 36 34 30 26 23 22 22 23 23 20 18 17 16 17 18 18 17 16 15 15 15 15 14 13 13 13 14 15 16 17 18 18 18 18 17 16 16 16 15 16 16 16 16 16 16 16 16 16 17
34 36 38 38 38 37 36 35 33 33 35 37 39 39 38 37 33 31 29 26 22 21 23 22 20 18 16 16 17 17 17 17 17 18 18 19 19 17 16 16 16 17 18 18 19 19 19 19 19 18 17 16 16 15 16 16 16 17 17 17 18 18 19
Wind_Direction
353 339 334 336 333 331 334 340 315 219 206 200 202 207 214 214 212 219 223 222 220 216 216 218 217 219 222 221 218 219 223 225 227 234 241 248 252 250 248 247 246 241 234 233 236 233 227 228 233 236 236 235 232 232 233 235 237 236 232 231 232 237 238
351 335 326 327 327 326 324 328 311 221 209 206 207 209 214 215 214 220 225 224 222 219 218 219 220 219 221 222 221 220 224 228 230 236 241 249 256 259 256 252 249 247 243 239 237 235 233 231 233 237 238 236 232 231 231 232 233 234 234 232 228 229 233
341 328 321 323 322 318 309 304 294 244 219 213 213 214 217 218 218 222 225 225 225 223 220 220 221 221 221 223 223 222 225 229 232 236 240 246 255 261 260 254 250 248 247 246 240 237 240 238 234 234 237 238 236 234 234 231 229 229 230 230 228 228 232
328 320 314 320 319 309 296 287 281 264 244 229 220 218 220 222 223 225 227 227 227 226 223 221 221 221 222 225 225 223 224 228 232 234 238 244 252 258 259 253 248 247 247 247 242 241 245 246 239 234 236 240 240 241 240 236 230 229 229 229 230 231 233
317 309 304 309 310 304 294 290 292 290 284 267 249 240 233 233 235 236 236 234 231 230 228 226 227 227 228 228 228 226 226 229 233 234 238 243 249 256 257 251 245 244 247 248 247 245 246 246 244 239 238 240 244 248 248 246 241 237 236 234 231 229 229
313 303 298 300 305 310 315 319 320 312 302 283 270 264 248 240 245 249 248 241 235 234 233 232 232 233 233 231 230 230 229 231 235 238 240 243 246 253 255 250 245 244 246 250 253 251 246 243 242 244 244 244 249 257 258 255 251 245 242 242 239 231 226
313 302 298 297 302 317 333 339 331 319 313 295 272 266 254 234 233 239 243 241 237 236 237 236 236 237 238 236 234 233 232 233 235 238 241 242 243 247 250 247 244 244 247 250 254 254 249 245 244 248 252 253 255 257 256 255 253 249 246 245 244 238 229
311 306 309 304 303 313 325 334 333 330 328 318 296 284 282 261 235 227 228 231 233 234 236 238 239 241 242 241 238 237 236 236 236 237 239 241 240 241 243 243 242 243 246 248 250 252 251 249 247 249 251 251 250 247 243 243 244 245 246 247 247 243 234
305 311 317 311 307 312 316 319 328 336 333 327 318 299 289 275 248 232 226 225 228 233 236 237 239 241 243 243 238 235 235 236 236 235 237 238 237 236 238 240 242 244 246 248 250 251 251 249 247 246 245 245 244 242 239 238 237 240 246 248 248 245 238
293 305 313 311 309 312 314 312 312 325 339 330 315 292 277 268 247 233 230 229 229 232 235 236 238 240 242 241 237 233 232 233 233 233 234 235 234 234 237 239 241 243 246 249 252 252 251 249 245 245 245 243 241 239 239 238 234 235 242 246 246 246 245
283 293 306 312 311 311 312 307 305 313 330 316 289 275 266 254 240 230 229 231 233 233 236 237 236 237 238 238 239 240 236 234 234 233 232 233 232 234 238 240 242 244 247 250 252 251 251 248 245 245 247 246 241 237 236 235 230 229 236 241 243 245 245
278 289 303 311 311 314 316 309 302 300 297 284 271 264 256 242 231 225 224 228 235 236 238 241 237 235 235 234 240 247 240 233 234 233 230 231 232 234 238 240 241 244 247 249 249 250 250 248 245 246 248 250 247 241 236 234 229 226 230 237 240 240 240
277 286 297 303 305 312 317 313 309 301 281 269 270 259 250 242 228 220 218 222 231 233 235 239 238 236 234 231 234 240 237 231 230 227 227 230 233 235 238 239 239 240 242 246 248 250 251 249 245 244 246 249 249 244 237 233 230 227 229 233 236 236 236
278 284 289 293 296 301 306 309 313 308 279 257 266 263 246 236 225 217 213 217 225 231 232 235 234 231 230 227 227 228 225 222 219 218 221 228 232 233 235 237 239 238 240 244 247 248 246 243 242 243 246 246 248 244 235 229 229 229 229 231 233 234 235
277 285 284 286 291 294 297 304 309 304 271 242 254 263 245 225 218 213 209 209 216 223 227 230 228 224 221 219 219 218 216 214 212 214 218 223 226 228 231 237 239 237 238 240 242 242 239 238 240 243 246 246 246 243 232 225 226 228 227 228 231 234 237
272 280 277 278 285 289 292 295 298 293 265 237 231 235 231 221 216 214 208 204 208 214 218 221 220 218 216 213 213 214 215 213 213 214 217 220 223 227 233 237 234 230 231 232 233 235 235 235 238 241 244 245 245 240 230 223 223 225 224 225 228 232 238
265 271 269 272 279 284 288 288 286 282 262 238 219 213 215 213 211 210 205 199 201 206 208 208 208 208 207 207 209 212 213 213 213 214 216 219 219 219 222 222 221 223 226 226 226 227 228 228 231 235 237 235 234 230 222 218 219 221 222 222 225 230 237
259 260 266 273 275 277 283 284 281 276 254 231 217 211 209 208 205 203 199 191 188 189 191 192 192 194 197 199 202 207 208 208 209 208 210 211 208 206 209 210 210 215 218 215 215 215 214 217 222 226 223 216 212 211 211 212 214 215 217 219 222 228 235
258 254 258 269 273 274 279 280 280 277 257 230 217 214 211 207 204 197 190 183 176 171 166 166 171 176 180 184 187 192 194 193 195 197 199 202 201 203 207 204 195 190 191 195 200 200 199 203 208 210 207 200 197 198 200 201 202 205 210 217 225 231 233
258 254 251 260 270 273 274 274 275 276 263 233 215 218 219 213 204 194 186 180 175 170 164 160 161 165 171 175 176 177 178 178 181 187 191 195 195 193 191 188 181 175 173 175 181 185 187 191 196 199 197 194 189 189 192 195 197 200 206 218 228 232 232
256 256 253 258 265 269 272 272 272 275 264 236 215 217 224 219 208 194 186 182 177 172 167 162 159 161 165 169 170 169 168 168 171 177 183 186 184 180 176 173 173 171 167 164 168 174 177 179 185 190 189 184 181 180 184 189 194 199 206 215 221 223 223
253 255 256 257 261 266 270 268 268 276 264 231 212 214 223 225 217 200 188 182 179 176 170 164 159 155 155 155 156 155 152 152 153 155 162 168 166 165 163 159 157 157 157 156 158 164 167 167 171 176 173 168 168 171 174 177 184 193 200 205 210 214 216
254 253 254 257 260 263 264 261 262 275 267 225 207 208 215 221 221 210 195 187 183 180 175 170 162 152 147 142 138 137 136 138 142 143 148 154 153 153 152 150 150 151 150 151 153 159 164 165 166 169 168 165 166 170 174 177 183 190 197 202 209 216 222
254 253 253 256 260 261 263 263 263 271 266 229 211 208 208 211 218 215 204 195 191 186 181 176 170 159 153 145 136 139 145 154 168 170 176 179 174 170 168 164 161 160 159 161 164 167 172 176 177 178 179 178 178 181 186 192 198 204 209 213 217 222 227
253 254 253 255 259 260 263 267 268 268 264 241 220 210 207 207 210 212 208 200 194 189 184 180 177 173 172 171 172 184 193 206 218 218 217 215 205 199 198 192 187 182 178 179 181 182 185 192 197 199 197 195 195 195 199 207 215 220 224 226 228 231 235
255 254 253 252 253 256 259 266 269 266 261 248 225 212 208 203 199 205 207 199 190 186 183 182 183 182 184 186 190 206 225 236 245 248 249 249 243 236 231 223 216 210 202 199 198 196 196 202 209 213 213 210 210 209 211 218 224 229 232 234 237 241 243
258 255 253 249 247 249 252 258 264 264 262 254 239 224 213 200 192 198 202 195 186 181 178 181 186 183 185 190 193 204 222 239 260 271 275 276 272 265 259 252 242 232 223 217 214 210 207 210 215 220 222 222 224 225 226 228 231 235 238 241 243 246 248
258 254 252 249 246 246 247 251 258 263 263 260 249 232 218 202 191 192 194 187 180 176 173 179 185 184 186 188 190 196 206 217 241 262 270 274 273 271 269 266 261 254 246 240 235 232 226 223 225 230 232 232 232 234 237 238 239 242 244 247 250 251 252
255 252 250 249 246 245 245 248 253 255 256 258 250 229 209 198 189 188 188 182 175 172 172 176 182 184 184 184 185 188 191 194 207 223 240 250 256 261 263 263 263 260 257 255 253 252 249 244 242 244 246 245 242 242 245 247 249 251 251 252 253 254 255
254 251 248 246 245 244 244 244 245 246 247 251 246 220 196 192 191 188 185 180 172 166 168 173 178 179 176 173 173 173 174 178 187 198 214 230 241 249 254 255 257 255 253 253 253 254 254 253 250 250 251 252 250 248 250 252 254 255 256 256 256 257 257
253 251 247 244 243 241 240 239 237 237 240 241 238 218 195 190 188 183 180 178 170 162 164 171 177 177 173 169 168 167 168 171 177 186 196 208 221 233 240 245 250 254 255 256 256 256 256 254 253 251 250 250 250 249 250 252 254 255 256 256 256 257 257
251 249 244 241 240 238 238 237 233 232 234 233 235 232 210 194 186 184 186 183 172 164 166 173 180 184 183 178 175 173 173 174 178 182 187 194 204 217 229 240 249 254 258 260 261 262 261 259 257 255 253 254 254 254 253 253 253 255 256 256 256 257 257
246 247 242 239 239 237 237 237 235 233 234 234 239 243 226 206 200 197 193 183 170 165 169 176 184 191 194 193 190 186 183 183 185 186 187 192 201 211 223 237 248 255 258 262 264 264 265 264 263 263 262 261 259 259 258 258 257 257 258 259 260 260 261
241 242 240 237 237 236 237 239 237 233 232 232 234 232 218 206 203 200 192 182 171 166 168 174 184 192 199 203 204 202 199 198 198 199 200 200 206 217 229 240 250 257 259 263 267 270 270 269 268 266 267 267 267 266 264 263 263 263 263 263 264 265 266
237 237 237 236 234 232 234 238 237 231 227 226 224 222 218 212 207 202 195 187 178 170 169 176 184 189 197 204 205 207 210 212 213 217 221 221 222 230 239 245 254 261 265 268 271 273 274 273 271 269 268 269 270 271 271 270 269 268 268 268 269 270 271
237 234 234 234 231 228 230 235 237 233 228 226 226 226 224 223 224 220 208 195 186 180 179 183 188 192 197 202 204 205 208 212 217 225 232 235 237 240 244 248 254 260 266 270 272 273 273 272 271 271 270 269 269 269 269 268 267 267 267 268 269 270 272
238 234 234 235 232 228 227 229 230 230 229 229 232 232 229 228 234 239 230 213 198 188 185 188 194 198 203 206 209 210 211 214 219 225 232 238 242 244 248 253 258 262 267 271 275 277 278 275 271 269 268 267 266 265 264 264 263 263 263 265 267 269 271
239 235 233 234 234 232 230 226 223 223 225 228 232 236 236 234 235 236 233 227 213 194 189 193 198 202 209 215 215 215 217 221 225 228 232 236 240 243 246 250 256 262 266 270 274 279 282 281 276 270 267 265 263 259 258 258 258 260 262 265 268 271 273
Height
5883 5882 5882 5881 5880 5878 5877 5876 5875 5874 5874 5876 5877 5879 5880 5882 5884 5885 5887 5889 5891 5893 5894 5895 5896 5897 5897 5897 5899 5900 5901 5901 5902 5902 5903 5904 5904 5905 5906 5906 5907 5908 5908 5909 5910 5910 5910 5911 5911 5912 5912 5912 5913 5913 5913 5914 5915 5916 5915 5915 5915 5916 5916
5883 5882 5881 5881 5880 5878 5877 5876 5875 5875 5875 5876 5877 5878 5879 5880 5882 5884 5885 5887 5889 5890 5892 5893 5894 5894 5895 5895 5896 5898 5899 5899 5900 5900 5901 5902 5902 5903 5904 5905 5905 5906 5907 5908 5909 5909 5910 5910 5910 5910 5911 5912 5912 5912 5912 5913 5914 5914 5914 5914 5914 5914 5915
5884 5882 5881 5880 5879 5878 5876 5875 5874 5874 5874 5874 5875 5876 5877 5878 5880 5882 5883 5885 5886 5888 5889 5891 5891 5892 5892 5893 5894 5895 5897 5897 5898 5898 5899 5900 5900 5901 5902 5902 5903 5904 5905 5906 5908 5908 5908 5909 5909 5909 5910 5910 5911 5911 5911 5912 5912 5912 5913 5913 5913 5914 5914
5885 5882 5880 5879 5878 5877 5876 5876 5875 5874 5874 5874 5874 5875 5876 5877 5878 5880 5882 5883 5884 5886 5887 5888 5889 5890 5890 5890 5891 5893 5894 5895 5895 5896 5897 5897 5898 5899 5900 5900 5901 5902 5903 5905 5906 5907 5907 5907 5908 5908 5909 5909 5910 5911 5911 5911 5911 5911 5912 5912 5913 5913 5913
5886 5884 5881 5879 5878 5877 5877 5877 5877 5877 5877 5877 5877 5877 5878 5878 5879 5880 5882 5883 5884 5884 5885 5887 5888 5888 5888 5888 5889 5890 5891 5892 5893 5894 5894 5895 5896 5897 5897 5898 5899 5900 5901 5902 5904 5905 5905 5906 5907 5907 5908 5909 5909 5910 5911 5912 5911 5911 5911 5911 5911 5912 5912
5888 5885 5883 5881 5879 5879 5879 5879 5879 5879 5878 5879 5878 5878 5878 5879 5880 5881 5881 5883 5883 5883 5884 5885 5886 5886 5886 5886 5887 5887 5889 5890 5891 5891 5892 5893 5894 5895 5895 5896 5897 5898 5899 5900 5902 5903 5904 5905 5906 5906 5907 5909 5910 5910 5911 5912 5911 5911 5911 5911 5911 5911 5911
5888 5886 5884 5882 5880 5880 5880 5878 5877 5877 5877 5877 5877 5875 5875 5877 5878 5878 5879 5880 5881 5881 5882 5883 5883 5884 5884 5884 5885 5885 5887 5888 5888 5889 5890 5891 5891 5892 5893 5894 5895 5896 5897 5899 5900 5901 5903 5904 5905 5905 5906 5907 5909 5909 5909 5910 5910 5910 5910 5910 5910 5910 5910
5886 5885 5883 5882 5880 5879 5878 5876 5875 5876 5876 5875 5875 5875 5876 5876 5875 5875 5876 5878 5878 5879 5879 5879 5880 5880 5881 5882 5883 5884 5885 5885 5886 5887 5887 5888 5889 5890 5890 5891 5892 5894 5895 5896 5898 5900 5901 5902 5903 5903 5903 5904 5904 5905 5905 5906 5908 5909 5909 5909 5909 5909 5909
5883 5883 5882 5880 5879 5878 5876 5875 5875 5875 5874 5873 5873 5873 5874 5875 5874 5874 5874 5875 5876 5876 5876 5876 5877 5878 5878 5879 5880 5881 5881 5882 5883 5884 5885 5885 5886 5887 5888 5889 5890 5892 5893 5894 5896 5897 5898 5900 5900 5900 5900 5900 5901 5902 5902 5903 5904 5906 5906 5907 5907 5908 5908
5882 5882 5881 5879 5878 5877 5876 5875 5875 5875 5873 5872 5872 5871 5871 5871 5871 5872 5873 5874 5873 5873 5873 5874 5875 5876 5875 5875 5876 5876 5877 5878 5879 5880 5881 5882 5883 5884 5885 5887 5888 5889 5890 5891 5893 5894 5895 5897 5897 5897 5898 5898 5899 5900 5901 5902 5902 5903 5903 5905 5906 5906 5907
5882 5882 5881 5879 5877 5876 5876 5875 5875 5875 5873 5870 5870 5870 5869 5868 5869 5870 5871 5872 5871 5871 5871 5871 5872 5872 5872 5872 5871 5871 5873 5874 5876 5877 5878 5879 5881 5883 5884 5885 5886 5887 5888 5888 5890 5891 5892 5894 5895 5895 5896 5896 5897 5898 5899 5900 5900 5901 5901 5902 5904 5905 5905
5881 5881 5880 5878 5876 5876 5876 5875 5874 5874 5872 5870 5868 5868 5868 5867 5866 5867 5868 5869 5870 5870 5869 5869 5869 5869 5869 5869 5868 5868 5869 5871 5873 5874 5876 5878 5880 5881 5883 5884 5885 5885 5885 5886 5887 5888 5889 5891 5892 5893 5893 5894 5895 5896 5897 5898 5898 5899 5899 5900 5901 5903 5904
5879 5879 5878 5877 5875 5875 5875 5874 5873 5873 5872 5870 5868 5867 5866 5866 5865 5865 5865 5866 5867 5867 5867 5867 5867 5867 5867 5866 5866 5866 5868 5869 5870 5872 5874 5876 5878 5879 5881 5882 5882 5882 5883 5884 5885 5886 5887 5889 5889 5890 5891 5892 5893 5894 5895 5896 5896 5897 5897 5898 5899 5901 5901
5878 5878 5876 5875 5874 5873 5874 5874 5873 5873 5872 5870 5867 5865 5865 5865 5864 5863 5864 5864 5864 5864 5864 5864 5865 5865 5865 5864 5864 5865 5866 5867 5868 5870 5873 5874 5876 5878 5879 5880 5879 5879 5881 5883 5883 5883 5884 5885 5886 5888 5889 5890 5891 5891 5892 5893 5894 5895 5895 5895 5897 5898 5899
5877 5877 5875 5874 5873 5872 5872 5873 5873 5872 5871 5869 5867 5865 5864 5864 5863 5863 5862 5862 5862 5861 5862 5862 5863 5863 5862 5862 5863 5863 5865 5866 5867 5869 5871 5872 5874 5875 5875 5875 5876 5877 5880 5881 5881 5880 5881 5882 5884 5885 5887 5888 5888 5889 5890 5891 5893 5893 5893 5893 5894 5895 5896
5876 5875 5874 5873 5872 5871 5870 5871 5872 5871 5870 5869 5866 5864 5864 5864 5863 5862 5862 5861 5860 5860 5860 5860 5860 5860 5860 5861 5861 5862 5863 5864 5866 5868 5869 5870 5871 5871 5871 5873 5875 5877 5878 5878 5877 5877 5878 5879 5881 5883 5883 5884 5885 5886 5887 5889 5890 5890 5891 5891 5892 5893 5894
5873 5873 5872 5871 5871 5870 5868 5868 5869 5869 5869 5867 5865 5863 5863 5863 5862 5862 5861 5860 5859 5858 5858 5858 5858 5858 5858 5859 5860 5861 5862 5863 5864 5866 5867 5867 5868 5868 5870 5872 5874 5874 5873 5872 5873 5874 5875 5876 5878 5880 5880 5881 5881 5883 5884 5886 5887 5888 5889 5890 5890 5891 5892
5871 5871 5870 5868 5868 5867 5865 5864 5865 5866 5866 5864 5862 5861 5861 5861 5861 5861 5860 5859 5858 5857 5857 5856 5856 5857 5857 5858 5859 5860 5861 5862 5863 5864 5864 5865 5867 5868 5869 5870 5870 5869 5868 5869 5870 5871 5872 5874 5876 5877 5878 5878 5879 5880 5882 5883 5885 5886 5887 5888 5888 5889 5890
5868 5868 5868 5866 5864 5863 5862 5860 5860 5862 5862 5861 5860 5860 5860 5859 5859 5860 5859 5858 5858 5857 5856 5856 5856 5857 5858 5859 5859 5860 5860 5861 5862 5863 5863 5864 5866 5867 5867 5866 5866 5866 5867 5868 5868 5869 5870 5872 5874 5875 5876 5876 5876 5878 5880 5882 5883 5884 5885 5886 5887 5888 5889
5864 5865 5865 5863 5860 5858 5858 5858 5858 5858 5859 5859 5858 5859 5860 5860 5859 5858 5858 5858 5858 5857 5857 5857 5857 5859 5860 5861 5861 5861 5861 5862 5863 5863 5864 5864 5865 5865 5865 5865 5866 5866 5867 5867 5868 5869 5870 5871 5873 5874 5874 5874 5875 5877 5879 5880 5881 5882 5883 5884 5885 5886 5887
5860 5861 5861 5859 5856 5854 5854 5856 5856 5855 5855 5856 5856 5857 5859 5860 5859 5857 5857 5857 5858 5858 5858 5858 5859 5860 5861 5863 5863 5864 5864 5864 5864 5864 5865 5865 5865 5865 5866 5866 5867 5867 5867 5868 5869 5869 5870 5871 5872 5873 5874 5873 5874 5875 5877 5878 5879 5880 5881 5883 5884 5885 5886
5855 5856 5856 5854 5852 5851 5852 5853 5854 5852 5851 5852 5854 5855 5858 5861 5860 5858 5856 5856 5857 5858 5858 5859 5860 5861 5862 5864 5865 5865 5865 5866 5866 5866 5866 5866 5867 5867 5867 5867 5868 5868 5868 5869 5869 5870 5870 5871 5872 5873 5873 5874 5874 5874 5875 5876 5877 5879 5881 5882 5883 5883 5884
5850 5851 5850 5849 5848 5848 5849 5849 5850 5850 5850 5851 5852 5852 5855 5860 5862 5860 5858 5856 5857 5857 5858 5860 5861 5861 5862 5863 5865 5866 5866 5866 5867 5867 5867 5867 5867 5868 5868 5868 5869 5869 5869 5870 5870 5870 5870 5870 5871 5872 5872 5873 5874 5874 5875 5876 5877 5879 5880 5881 5881 5882 5883
5845 5845 5845 5844 5844 5845 5845 5844 5846 5849 5849 5849 5849 5849 5851 5856 5860 5861 5859 5857 5857 5857 5858 5859 5860 5861 5861 5862 5863 5865 5866 5867 5867 5868 5868 5868 5868 5868 5868 5868 5869 5869 5870 5870 5870 5870 5870 5870 5871 5871 5872 5873 5873 5874 5875 5876 5877 5878 5879 5880 5881 5881 5882
5840 5840 5840 5840 5841 5842 5842 5841 5843 5845 5846 5846 5846 5846 5847 5850 5855 5859 5859 5857 5856 5856 5856 5857 5858 5859 5860 5861 5862 5863 5865 5866 5867 5868 5869 5868 5868 5868 5869 5869 5869 5870 5870 5871 5871 5871 5871 5871 5871 5872 5872 5873 5874 5875 5876 5877 5877 5878 5879 5880 5881 5881 5882
5834 5835 5834 5836 5838 5840 5839 5838 5839 5841 5843 5844 5844 5842 5841 5843 5848 5853 5855 5855 5854 5854 5854 5855 5856 5857 5859 5859 5860 5861 5863 5865 5866 5868 5869 5869 5869 5869 5869 5869 5870 5870 5871 5872 5872 5872 5872 5872 5872 5872 5873 5873 5874 5875 5876 5877 5877 5878 5879 5879 5880 5880 5881
5829 5829 5829 5831 5834 5836 5837 5837 5837 5837 5839 5841 5841 5840 5839 5839 5842 5847 5851 5852 5851 5851 5852 5854 5855 5856 5857 5858 5859 5860 5861 5863 5865 5866 5868 5869 5869 5869 5870 5869 5870 5870 5870 5871 5871 5872 5872 5872 5872 5872 5873 5874 5874 5875 5876 5876 5877 5877 5878 5878 5878 5879 5879
5823 5825 5825 5827 5830 5832 5833 5834 5835 5835 5836 5836 5835 5835 5837 5838 5839 5842 5846 5848 5848 5848 5850 5852 5853 5855 5856 5857 5858 5859 5860 5861 5863 5865 5866 5867 5868 5869 5869 5869 5869 5869 5869 5869 5870 5870 5871 5872 5872 5872 5873 5874 5875 5875 5875 5876 5876 5876 5877 5877 5877 5877 5877
5817 5820 5822 5823 5825 5827 5829 5830 5832 5833 5833 5832 5830 5831 5834 5837 5838 5840 5843 5844 5844 5843 5845 5848 5851 5852 5854 5855 5856 5858 5859 5860 5862 5863 5865 5866 5867 5868 5868 5868 5868 5868 5868 5868 5869 5869 5870 5871 5872 5872 5872 5873 5874 5874 5874 5874 5874 5874 5875 5875 5875 5875 5875
5812 5815 5818 5819 5820 5822 5823 5825 5827 5829 5829 5829 5829 5830 5833 5837 5838 5839 5841 5842 5842 5840 5841 5845 5848 5850 5851 5853 5854 5856 5858 5860 5861 5862 5864 5865 5866 5867 5867 5867 5867 5867 5867 5867 5868 5868 5868 5869 5870 5870 5870 5870 5871 5872 5872 5872 5872 5872 5872 5872 5872 5872 5872
5806 5810 5813 5815 5816 5817 5818 5819 5821 5823 5824 5826 5828 5831 5833 5835 5836 5837 5838 5839 5838 5837 5838 5842 5846 5848 5850 5851 5852 5854 5856 5857 5859 5861 5862 5863 5864 5865 5865 5866 5866 5866 5866 5866 5867 5867 5867 5867 5867 5867 5867 5867 5868 5868 5869 5869 5869 5869 5869 5869 5869 5869 5869
5800 5803 5808 5810 5811 5813 5814 5815 5816 5817 5819 5823 5828 5831 5832 5833 5833 5833 5834 5834 5833 5832 5835 5841 5844 5847 5849 5850 5851 5851 5853 5854 5856 5858 5860 5861 5862 5863 5863 5864 5865 5865 5865 5865 5866 5866 5866 5866 5866 5865 5865 5865 5866 5866 5866 5866 5866 5866 5866 5866 5867 5867 5867
5794 5797 5802 5805 5807 5808 5810 5811 5812 5814 5815 5819 5825 5829 5831 5831 5830 5829 5831 5832 5830 5828 5831 5838 5842 5845 5847 5849 5850 5850 5851 5852 5854 5855 5857 5858 5859 5860 5862 5862 5863 5863 5864 5864 5864 5864 5864 5864 5864 5864 5864 5864 5864 5864 5864 5864 5864 5864 5864 5865 5865 5865 5865
5789 5791 5795 5799 5802 5805 5807 5808 5810 5811 5811 5815 5821 5825 5827 5828 5828 5828 5829 5831 5830 5827 5829 5835 5839 5842 5845 5847 5848 5849 5850 5850 5852 5853 5854 5856 5857 5858 5859 5860 5861 5861 5862 5862 5862 5862 5863 5863 5863 5863 5863 5863 5863 5863 5863 5863 5863 5863 5863 5863 5863 5863 5863
5785 5787 5789 5793 5797 5800 5802 5805 5807 5808 5807 5810 5815 5819 5821 5824 5826 5827 5827 5828 5828 5827 5827 5831 5835 5838 5841 5843 5845 5846 5847 5848 5849 5851 5852 5853 5854 5855 5856 5857 5858 5859 5859 5860 5860 5860 5861 5861 5861 5861 5861 5861 5861 5861 5861 5861 5861 5861 5861 5862 5862 5862 5861
5781 5783 5784 5786 5791 5795 5798 5800 5803 5804 5805 5807 5809 5813 5817 5820 5823 5825 5826 5826 5824 5823 5824 5827 5831 5834 5837 5840 5841 5842 5844 5845 5846 5848 5849 5850 5851 5852 5853 5854 5855 5856 5857 5858 5858 5859 5859 5859 5859 5859 5859 5859 5859 5859 5859 5859 5859 5860 5860 5860 5860 5860 5860
5776 5778 5779 5780 5784 5788 5792 5796 5799 5801 5803 5805 5806 5808 5812 5816 5819 5823 5825 5825 5823 5821 5821 5823 5827 5831 5834 5836 5838 5839 5840 5842 5843 5844 5846 5847 5848 5849 5850 5851 5852 5853 5854 5854 5855 5856 5856 5857 5857 5857 5857 5857 5857 5857 5857 5857 5857 5858 5858 5858 5858 5858 5858
5770 5773 5775 5776 5778 5782 5785 5790 5795 5799 5801 5802 5803 5804 5806 5810 5815 5818 5821 5823 5823 5822 5820 5819 5822 5826 5830 5833 5836 5837 5838 5839 5840 5842 5843 5844 5845 5846 5847 5848 5849 5849 5850 5851 5852 5852 5853 5854 5854 5854 5854 5854 5854 5855 5855 5855 5855 5855 5855 5855 5855 5855 5855